CZ-4 DEB, 26286

Orbit data source: Space-Track

CZ-4 DEB, 26286 is space debris in SSO originally from a launch on Thu, 14 Oct 1999 UTC launched from the Taiyaun Space Center, China (TSC). Debris objects in space refer to the collection of defunct objects orbiting the Earth. Examples of debris include non-operational satellites, rocket bodies, and fragments generated from explosions, collisions, or faulty payload assembly.

Loading next visibility...
Identifier
26286, 1999-057FY
Orbit
SSO
Country
Flag of CNCN / PRC
Related business
Manufacturer
Unknown
Mission
Spacecraft
Bus & Motor
Unknown
Mass
Unknown
Launch date (UTC)
1999-10-14 (26 years ago)
Launch vehicle
Unknown
Launch site
Taiyaun Space Center, China (TSC)
Object type
Payload
Rocket body
Debris
Shape & HBR
Unknown shape, 0.1 m
Radar Cross Section
Small (<0.1 m²)

Expand to show TLE details & history
Last TLE update: 13 hours ago

TLE from 13 hours ago
0 CZ-4 DEB
1 26286U 99057FY  26036.70965123  .00005024  00000-0  95294-3 0  9997
2 26286  98.4019  99.8909 0058388 299.5354 185.1086 14.63618449367977
Epoch: 2026-02-05T17:01Z
TLE epoch observation values (Epoch: 2026-02-05T17:01:53.866Z)
Latitude
54.6348°
Longitude
-99.49549°
Altitude
731.598 km
Speed
7.473 km/s
True Right ascension
19h 27m 20s
True Declination
54° 28' 18"
Sunlit
Object was in daylight at epoch
Visualization orbit readout
Latitude
Unknown
Longitude
Unknown
Altitude
Unknown
Speed
Unknown
Apparent Right ascension
Unknown
Apparent Declination
Unknown
Sunlit
N/A
Visualization observer readout
Local Sidereal Time
07:38:40
Azimuth
Unknown
Elevation
Unknown
Doppler factor
Unknown
Orbital elements
Apogee altitude
719.803 km
Perigee altitude
637.397 km
Semi-major axis
7,056.737 km
Eccentricity
0.00584
Inclination
98.4019°
RAAN
99.8909°
Arg. of periapsis
299.5354°
True anomaly
185.04945°
Mean anomaly
185.1086°
Eccentric anomaly
185.07898°
Mean motion
3.66132 °/min
Orbital period
98.33 mins
BSTAR
0.00095294
Loading maneuver chart data...
Computing Atmospheric mass density...
Loading historical data...
Loading historical data...
Loading historical data...
Loading historical data...
Loading historical data...
Loading historical data...
Loading historical data...

Documentation

Showing up to 5 results
|